| time (UTC) | temp C | wind direction | speed KPH | gust KPH | rain 1hr cm | rain 24hr cm | rain mn cm | humidity % | barometer mb |
| 20260507000444 | 10 | 100 | 0.0 | 0.0 | 0.00 | 0.10 | 0.10 | 91 | 1010.5 |
| 20260506235940 | 10 | 100 | 0.0 | 0.0 | 0.00 | 0.10 | 0.10 | 91 | 1010.5 |
| 20260506235438 | 10 | 54 | 0.0 | 0.0 | 0.00 | 0.10 | 0.10 | 91 | 1010.5 |
| 20260506234933 | 10 | 54 | 0.0 | 0.0 | 0.00 | 0.10 | 0.10 | 91 | 1010.5 |
| 20260506234431 | 10 | 112 | 0.0 | 0.0 | 0.00 | 0.10 | 0.10 | 91 | 1010.3 |
| 20260506233929 | 10 | 112 | 0.0 | 0.0 | 0.00 | 0.10 | 0.10 | 91 | 1010.3 |
| 20260506233425 | 10 | 159 | 0.0 | 0.0 | 0.00 | 0.10 | 0.10 | 92 | 1010.5 |
| 20260506232921 | 10 | 159 | 0.0 | 0.0 | 0.00 | 0.10 | 0.10 | 92 | 1010.5 |
| 20260506232418 | 10 | 151 | 0.0 | 0.0 | 0.00 | 0.10 | 0.10 | 93 | 1010.3 |
| 20260506231914 | 10 | 151 | 0.0 | 0.0 | 0.00 | 0.10 | 0.10 | 93 | 1010.3 |
| 20260506231412 | 11 | 47 | 1.6 | 3.2 | 0.00 | 0.10 | 0.10 | 93 | 1009.8 |
| 20260506230909 | 11 | 47 | 1.6 | 3.2 | 0.00 | 0.10 | 0.10 | 93 | 1009.8 |
| 20260506230405 | 11 | 104 | 0.0 | 0.0 | 0.00 | 0.10 | 0.10 | 94 | 1009.9 |
| 20260506225901 | 11 | 104 | 0.0 | 0.0 | 0.00 | 0.10 | 0.10 | 94 | 1009.9 |
| 20260506225359 | 11 | 95 | 0.0 | 0.0 | 0.00 | 0.10 | 0.10 | 93 | 1009.7 |
| 20260506224856 | 11 | 95 | 0.0 | 0.0 | 0.00 | 0.10 | 0.10 | 93 | 1009.7 |
| 20260506224353 | 11 | 112 | 0.0 | 0.0 | 0.00 | 0.10 | 0.10 | 92 | 1009.3 |
| 20260506223849 | 11 | 112 | 0.0 | 0.0 | 0.00 | 0.10 | 0.10 | 92 | 1009.3 |
| 20260506223344 | 11 | 98 | 0.0 | 1.6 | 0.00 | 0.10 | 0.10 | 94 | 1009.2 |
| 20260506222842 | 11 | 98 | 0.0 | 1.6 | 0.00 | 0.10 | 0.10 | 94 | 1009.2 |
| 20260506222337 | 11 | 145 | 0.0 | 0.0 | 0.00 | 0.10 | 0.10 | 94 | 1009.0 |
| 20260506221835 | 11 | 145 | 0.0 | 0.0 | 0.00 | 0.10 | 0.10 | 94 | 1009.0 |
| 20260506221333 | 12 | 237 | 0.0 | 0.0 | 0.00 | 0.10 | 0.10 | 93 | 1008.6 |
| 20260506220830 | 12 | 237 | 0.0 | 0.0 | 0.00 | 0.10 | 0.10 | 93 | 1008.6 |
| 20260506220325 | 12 | 55 | 1.6 | 1.6 | 0.00 | 0.10 | 0.10 | 91 | 1008.2 |
| 20260506215823 | 12 | 55 | 1.6 | 1.6 | 0.00 | 0.10 | 0.10 | 91 | 1008.2 |
| 20260506215318 | 14 | 147 | 0.0 | 0.0 | 0.18 | 0.10 | 0.10 | 89 | 1007.9 |
| 20260506214814 | 14 | 147 | 0.0 | 0.0 | 0.18 | 0.10 | 0.10 | 89 | 1007.9 |
| 20260506214311 | 17 | 29 | 1.6 | 1.6 | 0.00 | 0.08 | 0.08 | 85 | 1007.0 |
| 20260506213810 | 17 | 29 | 1.6 | 1.6 | 0.00 | 0.08 | 0.08 | 85 | 1007.0 |
| 20260506213306 | 17 | 122 | 0.0 | 0.0 | 0.00 | 0.08 | 0.08 | 86 | 1006.7 |
| 20260506212804 | 17 | 122 | 0.0 | 0.0 | 0.00 | 0.08 | 0.08 | 86 | 1006.7 |
| 20260506212259 | 17 | 124 | 0.0 | 1.6 | 0.00 | 0.08 | 0.08 | 86 | 1006.0 |
| 20260506211754 | 17 | 124 | 0.0 | 1.6 | 0.00 | 0.08 | 0.08 | 86 | 1006.0 |
| 20260506211251 | 17 | 125 | 0.0 | 0.0 | 0.00 | 0.08 | 0.08 | 86 | 1006.2 |
| 20260506210748 | 17 | 125 | 0.0 | 0.0 | 0.00 | 0.08 | 0.08 | 86 | 1006.2 |
| 20260506210245 | 17 | 82 | 0.0 | 1.6 | 0.00 | 0.08 | 0.08 | 86 | 1006.2 |
| 20260506205742 | 17 | 82 | 0.0 | 1.6 | 0.00 | 0.08 | 0.08 | 86 | 1006.2 |
| 20260506205238 | 17 | 148 | 0.0 | 0.0 | 0.00 | 0.08 | 0.08 | 86 | 1006.1 |
| 20260506204735 | 17 | 148 | 0.0 | 0.0 | 0.00 | 0.08 | 0.08 | 86 | 1006.1 |
| 20260506204232 | 17 | 131 | 0.0 | 0.0 | 0.00 | 0.08 | 0.08 | 87 | 1005.9 |
| 20260506203730 | 17 | 131 | 0.0 | 0.0 | 0.00 | 0.08 | 0.08 | 87 | 1005.9 |
| 20260506203227 | 17 | 141 | 1.6 | 3.2 | 0.00 | 0.08 | 0.08 | 86 | 1006.0 |
| 20260506202725 | 17 | 141 | 1.6 | 3.2 | 0.00 | 0.08 | 0.08 | 86 | 1006.0 |
| 20260506202221 | 17 | 124 | 0.0 | 0.0 | 0.00 | 0.08 | 0.08 | 87 | 1006.0 |
| 20260506201718 | 17 | 124 | 0.0 | 0.0 | 0.00 | 0.08 | 0.08 | 87 | 1006.0 |
| 20260506201214 | 17 | 131 | 3.2 | 3.2 | 0.00 | 0.08 | 0.08 | 88 | 1006.1 |
| 20260506200712 | 17 | 131 | 3.2 | 3.2 | 0.00 | 0.08 | 0.08 | 88 | 1006.1 |
| 20260506200208 | 17 | 155 | 1.6 | 1.6 | 0.00 | 0.08 | 0.08 | 89 | 1006.2 |
| 20260506195704 | 17 | 155 | 1.6 | 1.6 | 0.00 | 0.08 | 0.08 | 89 | 1006.2 |
| 20260506195201 | 17 | 142 | 0.0 | 0.0 | 0.00 | 0.08 | 0.08 | 89 | 1006.4 |
| 20260506194659 | 17 | 142 | 0.0 | 0.0 | 0.00 | 0.08 | 0.08 | 89 | 1006.4 |
| 20260506194154 | 17 | 144 | 0.0 | 0.0 | 0.00 | 0.08 | 0.08 | 90 | 1006.0 |
| 20260506193652 | 17 | 144 | 0.0 | 0.0 | 0.00 | 0.08 | 0.08 | 90 | 1006.0 |
| 20260506193149 | 17 | 147 | 0.0 | 0.0 | 0.00 | 0.08 | 0.08 | 91 | 1006.4 |
| 20260506192646 | 17 | 147 | 0.0 | 0.0 | 0.00 | 0.08 | 0.08 | 91 | 1006.4 |
| 20260506192142 | 17 | 147 | 0.0 | 0.0 | 0.00 | 0.08 | 0.08 | 92 | 1006.4 |
| 20260506191639 | 17 | 147 | 0.0 | 0.0 | 0.00 | 0.08 | 0.08 | 92 | 1006.4 |
| 20260506191135 | 17 | 142 | 0.0 | 0.0 | 0.00 | 0.08 | 0.08 | 92 | 1006.4 |
| 20260506190633 | 17 | 142 | 0.0 | 0.0 | 0.00 | 0.08 | 0.08 | 92 | 1006.4 |
| 20260506190129 | 16 | 133 | 0.0 | 0.0 | 0.00 | 0.08 | 0.08 | 94 | 1006.3 |
| 20260506185627 | 16 | 133 | 0.0 | 0.0 | 0.00 | 0.08 | 0.08 | 94 | 1006.3 |
| 20260506185123 | 16 | 119 | 0.0 | 0.0 | 0.00 | 0.08 | 0.08 | 94 | 1006.6 |
| 20260506184620 | 16 | 119 | 0.0 | 0.0 | 0.00 | 0.08 | 0.08 | 94 | 1006.6 |
| 20260506184117 | 16 | 140 | 0.0 | 0.0 | 0.00 | 0.08 | 0.08 | 95 | 1006.7 |
| 20260506183614 | 16 | 140 | 0.0 | 0.0 | 0.00 | 0.08 | 0.08 | 95 | 1006.7 |
| 20260506183110 | 16 | 90 | 1.6 | 1.6 | 0.00 | 0.08 | 0.08 | 94 | 1006.6 |
| 20260506182608 | 16 | 90 | 1.6 | 1.6 | 0.00 | 0.08 | 0.08 | 94 | 1006.6 |
| 20260506182104 | 16 | 138 | 0.0 | 0.0 | 0.00 | 0.08 | 0.08 | 95 | 1006.7 |
| 20260506181602 | 16 | 138 | 0.0 | 0.0 | 0.00 | 0.08 | 0.08 | 95 | 1006.7 |
| 20260506181059 | 15 | 69 | 3.2 | 3.2 | 0.00 | 0.08 | 0.08 | 96 | 1006.9 |
| 20260506180556 | 15 | 69 | 3.2 | 3.2 | 0.00 | 0.08 | 0.08 | 96 | 1006.9 |
| 20260506180052 | 15 | 133 | 0.0 | 0.0 | 0.00 | 0.08 | 0.08 | 95 | 1007.0 |
| 20260506175548 | 15 | 133 | 0.0 | 0.0 | 0.00 | 0.08 | 0.08 | 95 | 1007.0 |
| 20260506175044 | 15 | 133 | 0.0 | 0.0 | 0.00 | 0.08 | 0.08 | 95 | 1006.9 |
| 20260506174544 | 15 | 133 | 0.0 | 0.0 | 0.00 | 0.08 | 0.08 | 95 | 1006.9 |
| 20260506174039 | 15 | 143 | 0.0 | 0.0 | 0.00 | 0.08 | 0.08 | 95 | 1006.9 |
| 20260506173537 | 15 | 143 | 0.0 | 0.0 | 0.00 | 0.08 | 0.08 | 95 | 1006.9 |
| 20260506173034 | 15 | 170 | 0.0 | 0.0 | 0.00 | 0.08 | 0.08 | 94 | 1006.8 |
| 20260506172531 | 15 | 170 | 0.0 | 0.0 | 0.00 | 0.08 | 0.08 | 94 | 1006.8 |
| 20260506172027 | 15 | 181 | 0.0 | 0.0 | 0.00 | 0.08 | 0.08 | 94 | 1007.0 |
| 20260506171525 | 15 | 181 | 0.0 | 0.0 | 0.00 | 0.08 | 0.08 | 94 | 1007.0 |
| 20260506171022 | 15 | 124 | 0.0 | 0.0 | 0.00 | 0.08 | 0.08 | 94 | 1007.0 |
| 20260506170520 | 15 | 124 | 0.0 | 0.0 | 0.00 | 0.08 | 0.08 | 94 | 1007.0 |
| 20260506170018 | 15 | 153 | 0.0 | 0.0 | 0.00 | 0.08 | 0.08 | 94 | 1006.9 |
| 20260506165516 | 15 | 153 | 0.0 | 0.0 | 0.00 | 0.08 | 0.08 | 94 | 1006.9 |
| 20260506165011 | 15 | 150 | 0.0 | 0.0 | 0.00 | 0.08 | 0.08 | 94 | 1006.7 |
| 20260506164508 | 15 | 150 | 0.0 | 0.0 | 0.00 | 0.08 | 0.08 | 94 | 1006.7 |
| 20260506164006 | 15 | 119 | 0.0 | 0.0 | 0.00 | 0.08 | 0.08 | 94 | 1006.9 |
| 20260506163502 | 15 | 119 | 0.0 | 0.0 | 0.00 | 0.08 | 0.08 | 94 | 1006.9 |
| 20260506162956 | 16 | 91 | 1.6 | 1.6 | 0.00 | 0.08 | 0.08 | 94 | 1006.8 |
| 20260506162454 | 16 | 91 | 1.6 | 1.6 | 0.00 | 0.08 | 0.08 | 94 | 1006.8 |
| 20260506161951 | 16 | 132 | 1.6 | 1.6 | 0.00 | 0.08 | 0.08 | 93 | 1006.7 |
| 20260506161449 | 16 | 132 | 1.6 | 1.6 | 0.00 | 0.08 | 0.08 | 93 | 1006.7 |
| 20260506160946 | 15 | 144 | 0.0 | 0.0 | 0.00 | 0.08 | 0.08 | 94 | 1006.8 |
| 20260506160443 | 15 | 144 | 0.0 | 0.0 | 0.00 | 0.08 | 0.08 | 94 | 1006.8 |
| 20260506155941 | 15 | 142 | 0.0 | 0.0 | 0.00 | 0.08 | 0.08 | 94 | 1006.7 |
| 20260506155438 | 15 | 142 | 0.0 | 0.0 | 0.00 | 0.08 | 0.08 | 94 | 1006.7 |
| 20260506153605 | 15 | 125 | 0.0 | 0.0 | 0.00 | 0.08 | 0.08 | 95 | 1007.1 |
| 20260506153102 | 15 | 140 | 0.0 | 0.0 | 0.13 | 0.08 | 0.08 | 94 | 1007.3 |
| 20260506152559 | 15 | 140 | 0.0 | 0.0 | 0.13 | 0.08 | 0.08 | 94 | 1007.3 |
| 20260506152057 | 15 | 151 | 0.0 | 0.0 | 0.00 | 0.05 | 0.05 | 94 | 1007.5 |
| 20260506151555 | 15 | 151 | 0.0 | 0.0 | 0.00 | 0.05 | 0.05 | 94 | 1007.5 |
| 20260506151052 | 15 | 155 | 1.6 | 1.6 | 0.00 | 0.05 | 0.05 | 92 | 1007.1 |
| 20260506150548 | 15 | 155 | 1.6 | 1.6 | 0.00 | 0.05 | 0.05 | 92 | 1007.1 |
| 20260506150045 | 15 | 160 | 0.0 | 0.0 | 0.00 | 0.05 | 0.05 | 92 | 1007.2 |
| 20260506145542 | 15 | 160 | 0.0 | 0.0 | 0.00 | 0.05 | 0.05 | 92 | 1007.2 |
| 20260506145039 | 15 | 149 | 0.0 | 0.0 | 0.00 | 0.05 | 0.05 | 92 | 1007.2 |
| 20260506144536 | 15 | 149 | 0.0 | 0.0 | 0.00 | 0.05 | 0.05 | 92 | 1007.2 |
| 20260506144033 | 16 | 149 | 1.6 | 1.6 | 0.00 | 0.05 | 0.05 | 91 | 1007.2 |
| 20260506143531 | 16 | 149 | 1.6 | 1.6 | 0.00 | 0.05 | 0.05 | 91 | 1007.2 |
| 20260506143029 | 15 | 135 | 0.0 | 0.0 | 0.00 | 0.05 | 0.05 | 92 | 1007.3 |
| 20260506142526 | 15 | 135 | 0.0 | 0.0 | 0.00 | 0.05 | 0.05 | 92 | 1007.3 |
| 20260506142025 | 15 | 127 | 0.0 | 0.0 | 0.00 | 0.05 | 0.05 | 90 | 1007.4 |
| 20260506141522 | 15 | 127 | 0.0 | 0.0 | 0.00 | 0.05 | 0.05 | 90 | 1007.4 |
| 20260506141020 | 15 | 140 | 0.0 | 0.0 | 0.00 | 0.05 | 0.05 | 91 | 1007.4 |
| 20260506140517 | 15 | 140 | 0.0 | 0.0 | 0.00 | 0.05 | 0.05 | 91 | 1007.4 |
| 20260506140015 | 15 | 141 | 0.0 | 0.0 | 0.00 | 0.05 | 0.05 | 92 | 1007.4 |
| 20260506135511 | 15 | 141 | 0.0 | 0.0 | 0.00 | 0.05 | 0.05 | 92 | 1007.4 |
| 20260506135007 | 15 | 142 | 0.0 | 0.0 | 0.00 | 0.05 | 0.05 | 92 | 1007.3 |
| 20260506134503 | 15 | 142 | 0.0 | 0.0 | 0.00 | 0.05 | 0.05 | 92 | 1007.3 |
| 20260506134000 | 15 | 142 | 0.0 | 0.0 | 0.00 | 0.05 | 0.05 | 90 | 1007.8 |
| 20260506133457 | 15 | 142 | 0.0 | 0.0 | 0.00 | 0.05 | 0.05 | 90 | 1007.8 |
| 20260506132954 | 15 | 142 | 0.0 | 0.0 | 0.00 | 0.05 | 0.05 | 90 | 1007.8 |
| 20260506132451 | 15 | 142 | 0.0 | 0.0 | 0.00 | 0.05 | 0.05 | 90 | 1007.8 |
| 20260506131948 | 16 | 143 | 0.0 | 0.0 | 0.00 | 0.05 | 0.05 | 89 | 1007.9 |
| 20260506131444 | 16 | 143 | 0.0 | 0.0 | 0.00 | 0.05 | 0.05 | 89 | 1007.9 |
| 20260506130942 | 16 | 142 | 0.0 | 0.0 | 0.30 | 0.05 | 0.05 | 86 | 1008.1 |
| 20260506130438 | 16 | 142 | 0.0 | 0.0 | 0.30 | 0.05 | 0.05 | 86 | 1008.1 |
| 20260506125936 | 16 | 118 | 0.0 | 0.0 | 0.00 | 0.00 | 0.00 | 84 | 1008.1 |
| 20260506125434 | 16 | 118 | 0.0 | 0.0 | 0.00 | 0.00 | 0.00 | 84 | 1008.1 |
| 20260506124932 | 16 | 120 | 0.0 | 0.0 | 0.00 | 0.00 | 0.00 | 83 | 1008.2 |
| 20260506124430 | 16 | 120 | 0.0 | 0.0 | 0.00 | 0.00 | 0.00 | 83 | 1008.2 |
| 20260506123927 | 16 | 122 | 0.0 | 0.0 | 0.00 | 0.00 | 0.00 | 79 | 1007.9 |
| 20260506123425 | 16 | 122 | 0.0 | 0.0 | 0.00 | 0.00 | 0.00 | 79 | 1007.9 |
| 20260506122922 | 17 | 141 | 0.0 | 0.0 | 0.00 | 0.00 | 0.00 | 77 | 1007.8 |
| 20260506122419 | 17 | 141 | 0.0 | 0.0 | 0.00 | 0.00 | 0.00 | 77 | 1007.8 |
| 20260506121918 | 17 | 148 | 0.0 | 0.0 | 0.00 | 0.00 | 0.00 | 72 | 1007.5 |
| 20260506121414 | 17 | 148 | 0.0 | 0.0 | 0.00 | 0.00 | 0.00 | 72 | 1007.5 |
| 20260506120911 | 18 | 158 | 0.0 | 0.0 | 0.00 | 0.00 | 0.00 | 68 | 1007.4 |
| 20260506120408 | 18 | 158 | 0.0 | 0.0 | 0.00 | 0.00 | 0.00 | 68 | 1007.4 |
| 20260506115906 | 18 | 158 | 1.6 | 1.6 | 0.00 | 0.00 | 0.00 | 63 | 1007.4 |
| 20260506115404 | 18 | 158 | 1.6 | 1.6 | 0.00 | 0.00 | 0.00 | 63 | 1007.4 |
| 20260506114902 | 18 | 157 | 0.0 | 0.0 | 0.00 | 0.00 | 0.00 | 60 | 1007.5 |
| 20260506114359 | 18 | 128 | 1.6 | 3.2 | 0.00 | 0.00 | 0.00 | 60 | 1007.5 |
| 20260506113858 | 18 | 128 | 1.6 | 3.2 | 0.00 | 0.00 | 0.00 | 60 | 1007.5 |
| 20260506113355 | 18 | 196 | 1.6 | 1.6 | 0.00 | 0.00 | 0.00 | 61 | 1007.5 |
| 20260506112851 | 18 | 196 | 1.6 | 1.6 | 0.00 | 0.00 | 0.00 | 61 | 1007.5 |
| 20260506112348 | 18 | 131 | 0.0 | 0.0 | 0.00 | 0.00 | 0.00 | 61 | 1007.3 |
| 20260506111846 | 18 | 131 | 0.0 | 0.0 | 0.00 | 0.00 | 0.00 | 61 | 1007.3 |
| 20260506111344 | 18 | 159 | 1.6 | 1.6 | 0.00 | 0.00 | 0.00 | 59 | 1007.1 |
| 20260506110841 | 18 | 159 | 1.6 | 1.6 | 0.00 | 0.00 | 0.00 | 59 | 1007.1 |
| 20260506110338 | 18 | 126 | 0.0 | 0.0 | 0.00 | 0.00 | 0.00 | 60 | 1007.1 |
| 20260506105835 | 18 | 126 | 0.0 | 0.0 | 0.00 | 0.00 | 0.00 | 60 | 1007.1 |
| 20260506105331 | 18 | 117 | 0.0 | 0.0 | 0.00 | 0.00 | 0.00 | 61 | 1006.8 |
| 20260506104829 | 18 | 117 | 0.0 | 0.0 | 0.00 | 0.00 | 0.00 | 61 | 1006.8 |
| 20260506104327 | 18 | 139 | 0.0 | 0.0 | 0.00 | 0.00 | 0.00 | 61 | 1006.7 |
| 20260506103824 | 18 | 139 | 0.0 | 0.0 | 0.00 | 0.00 | 0.00 | 61 | 1006.7 |
| 20260506103321 | 18 | 159 | 1.6 | 3.2 | 0.00 | 0.00 | 0.00 | 57 | 1006.6 |
| 20260506102819 | 18 | 159 | 1.6 | 3.2 | 0.00 | 0.00 | 0.00 | 57 | 1006.6 |
| 20260506102316 | 19 | 170 | 3.2 | 4.8 | 0.00 | 0.00 | 0.00 | 54 | 1006.4 |
| 20260506101814 | 19 | 170 | 3.2 | 4.8 | 0.00 | 0.00 | 0.00 | 54 | 1006.4 |
| 20260506101309 | 19 | 124 | 1.6 | 1.6 | 0.00 | 0.00 | 0.00 | 53 | 1006.4 |
| 20260506100808 | 19 | 124 | 1.6 | 1.6 | 0.00 | 0.00 | 0.00 | 53 | 1006.4 |
| 20260506100306 | 19 | 125 | 1.6 | 3.2 | 0.00 | 0.00 | 0.00 | 52 | 1006.4 |
| 20260506095804 | 19 | 125 | 1.6 | 3.2 | 0.00 | 0.00 | 0.00 | 52 | 1006.4 |
| 20260506095300 | 19 | 143 | 0.0 | 0.0 | 0.00 | 0.00 | 0.00 | 52 | 1006.6 |
| 20260506094757 | 19 | 143 | 0.0 | 0.0 | 0.00 | 0.00 | 0.00 | 52 | 1006.6 |
| 20260506094256 | 19 | 128 | 0.0 | 0.0 | 0.00 | 0.00 | 0.00 | 52 | 1006.7 |
| 20260506093754 | 19 | 128 | 0.0 | 0.0 | 0.00 | 0.00 | 0.00 | 52 | 1006.7 |
| 20260506093250 | 19 | 159 | 0.0 | 0.0 | 0.00 | 0.00 | 0.00 | 54 | 1006.6 |
| 20260506092749 | 19 | 159 | 0.0 | 0.0 | 0.00 | 0.00 | 0.00 | 54 | 1006.6 |
| 20260506092246 | 19 | 159 | 0.0 | 0.0 | 0.00 | 0.00 | 0.00 | 51 | 1006.5 |
| 20260506091743 | 19 | 159 | 0.0 | 0.0 | 0.00 | 0.00 | 0.00 | 51 | 1006.5 |
| 20260506091240 | 19 | 115 | 0.0 | 0.0 | 0.00 | 0.00 | 0.00 | 50 | 1006.7 |
| 20260506090738 | 19 | 115 | 0.0 | 0.0 | 0.00 | 0.00 | 0.00 | 50 | 1006.7 |
| 20260506090235 | 19 | 113 | 1.6 | 1.6 | 0.00 | 0.00 | 0.00 | 50 | 1006.7 |
| 20260506085732 | 19 | 113 | 1.6 | 1.6 | 0.00 | 0.00 | 0.00 | 50 | 1006.7 |
| 20260506085228 | 19 | 144 | 0.0 | 0.0 | 0.00 | 0.00 | 0.00 | 49 | 1006.9 |
| 20260506084725 | 19 | 144 | 0.0 | 0.0 | 0.00 | 0.00 | 0.00 | 49 | 1006.9 |
| 20260506084221 | 20 | 149 | 0.0 | 0.0 | 0.00 | 0.00 | 0.00 | 47 | 1006.8 |
| 20260506083718 | 20 | 149 | 0.0 | 0.0 | 0.00 | 0.00 | 0.00 | 47 | 1006.8 |
| 20260506083216 | 20 | 133 | 0.0 | 0.0 | 0.00 | 0.00 | 0.00 | 46 | 1006.9 |
| 20260506082713 | 20 | 133 | 0.0 | 0.0 | 0.00 | 0.00 | 0.00 | 46 | 1006.9 |
| 20260506082209 | 20 | 135 | 1.6 | 1.6 | 0.00 | 0.00 | 0.00 | 45 | 1007.0 |
| 20260506081706 | 20 | 135 | 1.6 | 1.6 | 0.00 | 0.00 | 0.00 | 45 | 1007.0 |
| 20260506081204 | 20 | 133 | 0.0 | 0.0 | 0.00 | 0.00 | 0.00 | 46 | 1006.8 |
| 20260506080701 | 20 | 133 | 0.0 | 0.0 | 0.00 | 0.00 | 0.00 | 46 | 1006.8 |
| 20260506080158 | 20 | 120 | 0.0 | 0.0 | 0.00 | 0.00 | 0.00 | 45 | 1007.0 |
| 20260506073142 | 20 | 162 | 1.6 | 1.6 | 0.00 | 0.00 | 0.00 | 44 | 1007.0 |
| 20260506072638 | 20 | 162 | 1.6 | 1.6 | 0.00 | 0.00 | 0.00 | 44 | 1007.0 |
| 20260506072136 | 20 | 140 | 1.6 | 1.6 | 0.00 | 0.00 | 0.00 | 45 | 1007.1 |
| 20260506071633 | 20 | 140 | 1.6 | 1.6 | 0.00 | 0.00 | 0.00 | 45 | 1007.1 |
| 20260506071131 | 20 | 127 | 1.6 | 1.6 | 0.00 | 0.00 | 0.00 | 43 | 1007.1 |
| 20260506070627 | 20 | 127 | 1.6 | 1.6 | 0.00 | 0.00 | 0.00 | 43 | 1007.1 |
| 20260506070125 | 20 | 180 | 0.0 | 0.0 | 0.00 | 0.00 | 0.00 | 44 | 1007.2 |
| 20260506062103 | 20 | 159 | 0.0 | 0.0 | 0.00 | 0.00 | 0.00 | 43 | 1007.7 |
| 20260506061558 | 20 | 159 | 0.0 | 0.0 | 0.00 | 0.00 | 0.00 | 43 | 1007.7 |
| 20260506061056 | 19 | 157 | 0.0 | 0.0 | 0.00 | 0.00 | 0.00 | 47 | 1007.5 |
| 20260506060554 | 19 | 157 | 0.0 | 0.0 | 0.00 | 0.00 | 0.00 | 47 | 1007.5 |
| 20260506051023 | 19 | 134 | 1.6 | 1.6 | 0.00 | 0.00 | 0.00 | 45 | 1008.1 |
| 20260506050521 | 19 | 134 | 1.6 | 1.6 | 0.00 | 0.00 | 0.00 | 45 | 1008.1 |
| 20260506045011 | 17 | 147 | 0.0 | 0.0 | 0.00 | 0.00 | 0.00 | 56 | 1008.0 |
| 20260506044509 | 17 | 147 | 0.0 | 0.0 | 0.00 | 0.00 | 0.00 | 56 | 1008.0 |
| 20260506044006 | 17 | 167 | 0.0 | 0.0 | 0.00 | 0.00 | 0.00 | 59 | 1008.1 |
| 20260506043503 | 17 | 167 | 0.0 | 0.0 | 0.00 | 0.00 | 0.00 | 59 | 1008.1 |
| 20260506043001 | 16 | 149 | 0.0 | 0.0 | 0.00 | 0.00 | 0.00 | 63 | 1008.0 |
| 20260506042500 | 16 | 149 | 0.0 | 0.0 | 0.00 | 0.00 | 0.00 | 63 | 1008.0 |
| 20260506041957 | 16 | 155 | 0.0 | 0.0 | 0.00 | 0.00 | 0.00 | 66 | 1008.2 |
| 20260506041455 | 16 | 155 | 0.0 | 0.0 | 0.00 | 0.00 | 0.00 | 66 | 1008.2 |
| 20260506040953 | 15 | 149 | 0.0 | 0.0 | 0.00 | 0.00 | 0.00 | 69 | 1008.1 |
| 20260506040450 | 15 | 149 | 0.0 | 0.0 | 0.00 | 0.00 | 0.00 | 69 | 1008.1 |
| 20260506035946 | 15 | 147 | 0.0 | 0.0 | 0.00 | 0.13 | 0.13 | 72 | 1008.3 |
| 20260506035443 | 15 | 147 | 0.0 | 0.0 | 0.00 | 0.13 | 0.13 | 72 | 1008.3 |
| 20260506034940 | 15 | 146 | 0.0 | 0.0 | 0.00 | 0.13 | 0.13 | 73 | 1008.1 |
| 20260506034438 | 15 | 146 | 0.0 | 0.0 | 0.00 | 0.13 | 0.13 | 73 | 1008.1 |
| 20260506033934 | 15 | 152 | 0.0 | 0.0 | 0.00 | 0.13 | 0.13 | 72 | 1008.4 |
| 20260506033432 | 15 | 152 | 0.0 | 0.0 | 0.00 | 0.13 | 0.13 | 72 | 1008.4 |
| 20260506032928 | 15 | 140 | 0.0 | 0.0 | 0.00 | 0.13 | 0.13 | 73 | 1008.1 |
| 20260506032425 | 15 | 140 | 0.0 | 0.0 | 0.00 | 0.13 | 0.13 | 73 | 1008.1 |
| 20260506031922 | 15 | 143 | 0.0 | 0.0 | 0.00 | 0.13 | 0.13 | 71 | 1008.2 |
| 20260506031419 | 15 | 143 | 0.0 | 0.0 | 0.00 | 0.13 | 0.13 | 71 | 1008.2 |
| 20260506030917 | 15 | 145 | 0.0 | 0.0 | 0.00 | 0.13 | 0.13 | 71 | 1008.2 |
| 20260506030415 | 15 | 145 | 0.0 | 0.0 | 0.00 | 0.13 | 0.13 | 71 | 1008.2 |
| 20260506025911 | 15 | 145 | 0.0 | 0.0 | 0.00 | 0.13 | 0.13 | 70 | 1008.2 |
| 20260506025408 | 15 | 145 | 0.0 | 0.0 | 0.00 | 0.13 | 0.13 | 70 | 1008.2 |
| 20260506024905 | 15 | 145 | 0.0 | 0.0 | 0.00 | 0.13 | 0.13 | 70 | 1008.3 |
| 20260506024402 | 15 | 145 | 0.0 | 0.0 | 0.00 | 0.13 | 0.13 | 70 | 1008.3 |
| 20260506023858 | 16 | 145 | 0.0 | 0.0 | 0.00 | 0.13 | 0.13 | 68 | 1008.3 |
| 20260506023355 | 16 | 145 | 0.0 | 0.0 | 0.00 | 0.13 | 0.13 | 68 | 1008.3 |
| 20260506022851 | 16 | 145 | 0.0 | 0.0 | 0.00 | 0.13 | 0.13 | 66 | 1008.2 |
| 20260506022349 | 16 | 145 | 0.0 | 0.0 | 0.00 | 0.13 | 0.13 | 66 | 1008.2 |
| 20260506021847 | 17 | 145 | 0.0 | 0.0 | 0.00 | 0.13 | 0.13 | 66 | 1008.4 |
| 20260506021344 | 17 | 145 | 0.0 | 0.0 | 0.00 | 0.13 | 0.13 | 66 | 1008.4 |
| 20260506020840 | 17 | 145 | 0.0 | 0.0 | 0.00 | 0.13 | 0.13 | 63 | 1008.3 |
| 20260506020338 | 17 | 145 | 0.0 | 0.0 | 0.00 | 0.13 | 0.13 | 63 | 1008.3 |
| 20260506015836 | 17 | 145 | 0.0 | 0.0 | 0.00 | 0.13 | 0.13 | 64 | 1008.4 |
| 20260506015333 | 17 | 145 | 0.0 | 0.0 | 0.00 | 0.13 | 0.13 | 64 | 1008.4 |
| 20260506014829 | 18 | 145 | 0.0 | 0.0 | 0.00 | 0.13 | 0.13 | 63 | 1008.2 |
| 20260506014326 | 18 | 145 | 0.0 | 0.0 | 0.00 | 0.13 | 0.13 | 63 | 1008.2 |
| 20260506013823 | 18 | 145 | 0.0 | 0.0 | 0.00 | 0.13 | 0.13 | 60 | 1008.2 |
| 20260506013320 | 18 | 145 | 0.0 | 0.0 | 0.00 | 0.13 | 0.13 | 60 | 1008.2 |
| 20260506012817 | 18 | 145 | 0.0 | 0.0 | 0.00 | 0.13 | 0.13 | 58 | 1008.2 |
| 20260506012314 | 18 | 145 | 0.0 | 0.0 | 0.00 | 0.13 | 0.13 | 58 | 1008.2 |
| 20260506011811 | 19 | 145 | 0.0 | 0.0 | 0.00 | 0.13 | 0.13 | 57 | 1007.9 |
| 20260506011308 | 19 | 145 | 0.0 | 0.0 | 0.00 | 0.13 | 0.13 | 57 | 1007.9 |
| 20260506010805 | 20 | 145 | 0.0 | 0.0 | 0.00 | 0.13 | 0.13 | 56 | 1007.6 |
| 20260506010303 | 20 | 145 | 0.0 | 0.0 | 0.00 | 0.13 | 0.13 | 56 | 1007.6 |
| 20260506005800 | 20 | 145 | 0.0 | 0.0 | 0.00 | 0.13 | 0.13 | 53 | 1007.8 |
| 20260506005257 | 20 | 145 | 0.0 | 0.0 | 0.00 | 0.13 | 0.13 | 53 | 1007.8 |
| 20260506004752 | 20 | 145 | 0.0 | 0.0 | 0.00 | 0.13 | 0.13 | 51 | 1007.5 |
| 20260506004250 | 21 | 145 | 0.0 | 0.0 | 0.00 | 0.13 | 0.13 | 51 | 1007.4 |
| 20260506003746 | 21 | 145 | 0.0 | 0.0 | 0.00 | 0.13 | 0.13 | 51 | 1007.4 |
| 20260506003243 | 21 | 145 | 0.0 | 0.0 | 0.00 | 0.13 | 0.13 | 50 | 1007.4 |
| 20260506002739 | 21 | 145 | 0.0 | 0.0 | 0.00 | 0.13 | 0.13 | 50 | 1007.4 |
| 20260506002235 | 22 | 144 | 0.0 | 0.0 | 0.00 | 0.13 | 0.13 | 45 | 1007.1 |
| 20260506001731 | 22 | 144 | 0.0 | 0.0 | 0.00 | 0.13 | 0.13 | 45 | 1007.1 |
| 20260506001229 | 22 | 145 | 0.0 | 0.0 | 0.00 | 0.13 | 0.13 | 48 | 1007.2 |
| 20260506000725 | 22 | 145 | 0.0 | 0.0 | 0.00 | 0.13 | 0.13 | 48 | 1007.2 |